Location: Albany
(35.0000°S, 118.0000°E)
Time: 07:04:48
(UTC-04:00)

ISS - All Passes

Search period start: 30 May 2017 00:00
Search period end: 09 June 2017 00:00
Orbit: 402 x 408 km, 51.6° (Epoch: 30 May)

Date Brightness Start Highest point End Pass type
(mag) Time Alt. Az. Time Alt. Az. Time Alt. Az.
30 May - 01:03:36 10° SSW 01:06:35 29° SE 01:09:32 10° E daylight
30 May - 02:40:16 10° WSW 02:42:58 23° NW 02:45:40 10° N daylight
30 May - 17:40:57 10° NNW 17:44:09 49° NE 17:47:22 10° ESE visible
30 May - 19:18:33 10° WSW 19:20:50 17° SSW 19:23:09 10° SSE daylight
31 May - 00:12:00 10° SSW 00:14:21 17° SSE 00:16:41 10° ESE daylight
31 May - 01:47:48 10° WSW 01:51:02 49° NW 01:54:15 10° NNE daylight
31 May - 16:49:32 10° N 16:52:12 23° NE 16:54:54 10° ESE visible
31 May - 18:25:41 10° W 18:28:36 28° SW 18:31:32 10° SSE visible
31 May - 23:20:48 10° S 23:22:01 11° SSE 23:23:13 10° SE daylight
01 Jun - 00:55:40 10° SW 00:59:00 74° SE 01:02:19 10° NE daylight
01 Jun - 15:59:18 10° NE 16:00:20 11° NE 16:01:23 10° ENE visible
01 Jun - 17:33:11 10° WNW 17:36:26 54° SW 17:39:43 10° SE visible
02 Jun - 00:03:45 10° SSW 00:06:53 36° SE 00:09:58 10° ENE daylight
02 Jun - 01:40:50 10° W 01:43:09 18° NW 01:45:27 10° N daylight
02 Jun - 16:41:05 10° NW 16:44:21 68° NE 16:47:39 10° SE visible
02 Jun - 18:19:12 10° WSW 18:21:10 15° SSW 18:23:08 10° S visible
02 Jun - 23:12:02 10° SSW 23:14:39 21° SSE 23:17:15 10° E daylight
03 Jun - 00:48:07 10° WSW 00:51:13 36° NW 00:54:18 10° NNE daylight
03 Jun - 15:49:25 10° NNW 15:52:21 30° NE 15:55:18 10° ESE night (unlit)
03 Jun - 17:26:08 10° W 17:28:51 23° SSW 17:31:35 10° SSE visible
03 Jun - 22:20:35 10° S 22:22:18 13° SSE 22:24:01 10° ESE daylight
03 Jun - 23:55:51 10° SW 23:59:11 83° NW 00:02:30 10° NE daylight
04 Jun - 14:58:29 10° NNE 15:00:24 15° NE 15:02:20 10° E night (unlit)
04 Jun - 16:33:27 10° WNW 16:36:37 42° SW 16:39:48 10° SE visible
04 Jun - 23:03:49 10° SW 23:07:03 46° SE 23:10:15 10° ENE daylight
05 Jun - 00:41:30 10° W 00:43:13 13° NW 00:44:56 10° NNW daylight
05 Jun - 15:41:09 10° NW 15:44:28 89° SSW 15:47:47 10° SE night (unlit)
05 Jun - 17:19:51 10° SW 17:21:23 13° SSW 17:22:55 10° S visible
05 Jun - 22:11:59 10° SSW 22:14:49 25° SE 22:17:38 10° E daylight
05 Jun - 23:48:23 10° WSW 23:51:16 27° NW 23:54:08 10° NNE daylight
06 Jun - 14:49:17 10° NNW 14:52:23 40° NE 14:55:31 10° ESE night (unlit)
06 Jun - 16:26:30 10° W 16:28:59 19° SSW 16:31:30 10° SSE night (unlit)
06 Jun - 21:20:22 10° S 21:22:28 16° SSE 21:24:34 10° ESE daylight
06 Jun - 22:55:56 10° SW 22:59:14 61° NW 23:02:29 10° NE daylight
07 Jun - 13:57:58 10° N 14:00:23 19° NE 14:02:49 10° E night (unlit)
07 Jun - 15:33:39 10° WNW 15:36:41 33° SW 15:39:44 10° SSE night (unlit)
07 Jun - 20:29:28 10° SSE 20:30:02 10° SSE 20:30:35 10° SSE daylight
07 Jun - 22:03:48 10° SW 22:07:06 60° SE 22:10:22 10° ENE daylight
07 Jun - 23:42:47 10° WNW 23:43:09 10° NW 23:43:32 10° NW daylight
08 Jun - 14:41:11 10° NW 14:44:27 67° SW 14:47:46 10° SE night (unlit)
08 Jun - 16:20:35 10° SW 16:21:30 11° SSW 16:22:24 10° S night (unlit)
08 Jun - 21:11:51 10° SSW 21:14:51 30° SE 21:17:50 10° E daylight
08 Jun - 22:48:37 10° WSW 22:51:13 21° NW 22:53:46 10° N daylight
